TimeCST,TemperatureF,Dew PointF,Humidity,Sea Level PressureIn,VisibilityMPH,Wind Direction,Wind SpeedMPH,Gust SpeedMPH,PrecipitationIn,Events,Conditions,WindDirDegrees,DateUTC
12:15 AM,39.6,29.8,68,30.36,7.0,SW,4.6,-,N/A,,Clear,230,2013-01-17 06:15:00
12:35 AM,41.0,27.5,59,30.35,10.0,Calm,Calm,-,N/A,,Clear,0,2013-01-17 06:35:00
1:15 AM,40.5,27.9,61,30.36,7.0,SW,5.8,-,N/A,,Clear,230,2013-01-17 07:15:00
1:35 AM,40.5,27.3,59,30.36,7.0,WSW,3.5,-,N/A,,Clear,240,2013-01-17 07:35:00
1:55 AM,41.9,27.0,55,30.37,7.0,SW,8.1,-,N/A,,Clear,230,2013-01-17 07:55:00
2:15 AM,41.9,26.2,54,30.37,7.0,WSW,8.1,-,N/A,,Clear,240,2013-01-17 08:15:00
2:35 AM,43.5,24.6,47,30.37,7.0,WSW,6.9,-,N/A,,Clear,250,2013-01-17 08:35:00
2:55 AM,42.1,24.8,50,30.37,7.0,West,5.8,-,N/A,,Clear,260,2013-01-17 08:55:00
3:15 AM,41.7,25.0,52,30.37,7.0,West,8.1,-,N/A,,Clear,260,2013-01-17 09:15:00
3:35 AM,43.0,24.8,49,30.37,7.0,West,8.1,-,N/A,,Clear,260,2013-01-17 09:35:00
3:55 AM,43.3,26.2,51,30.37,7.0,West,9.2,-,N/A,,Clear,260,2013-01-17 09:55:00
4:15 AM,43.0,26.8,53,30.37,7.0,West,8.1,-,N/A,,Clear,260,2013-01-17 10:15:00
4:35 AM,42.3,28.0,57,30.38,7.0,West,6.9,-,N/A,,Clear,260,2013-01-17 10:35:00
4:55 AM,41.4,28.6,60,30.38,5.0,West,6.9,-,N/A,,Haze,260,2013-01-17 10:55:00
5:15 AM,41.5,28.9,61,30.38,7.0,West,6.9,-,N/A,,Clear,260,2013-01-17 11:15:00
5:35 AM,41.2,28.4,60,30.38,7.0,WSW,5.8,-,N/A,,Clear,250,2013-01-17 11:35:00
5:55 AM,42.1,26.6,54,30.38,7.0,WSW,5.8,-,N/A,,Clear,250,2013-01-17 11:55:00
6:15 AM,41.5,26.1,54,30.39,5.0,West,6.9,-,N/A,,Haze,260,2013-01-17 12:15:00
6:35 AM,41.5,24.6,51,30.40,7.0,West,5.8,-,N/A,,Clear,260,2013-01-17 12:35:00
6:55 AM,41.7,23.9,49,30.40,7.0,West,6.9,-,N/A,,Clear,260,2013-01-17 12:55:00
7:15 AM,41.5,23.9,50,30.41,7.0,West,6.9,-,N/A,,Clear,270,2013-01-17 13:15:00
7:35 AM,41.4,23.9,50,30.41,7.0,West,6.9,-,N/A,,Clear,270,2013-01-17 13:35:00
7:55 AM,43.9,23.0,44,30.42,7.0,West,8.1,-,N/A,,Clear,280,2013-01-17 13:55:00
8:15 AM,46.6,23.7,41,30.43,5.0,West,6.9,-,N/A,,Haze,280,2013-01-17 14:15:00
8:35 AM,52.0,23.9,34,30.44,7.0,NW,10.4,-,N/A,,Clear,310,2013-01-17 14:35:00
8:55 AM,54.7,24.4,31,30.45,7.0,NW,11.5,-,N/A,,Clear,320,2013-01-17 14:55:00
9:15 AM,-9999,-9999,N/A,-9999,-9999.0,North,-9999.0,-,N/A,,Unknown,0,2013-01-17 15:15:00
9:35 AM,-9999,-9999,N/A,-9999,-9999.0,North,-9999.0,-,N/A,,Unknown,0,2013-01-17 15:35:00
9:55 AM,61.7,27.5,27,30.47,5.0,NNW,10.4,-,0.03,,Haze,330,2013-01-17 15:55:00
10:15 AM,63.7,28.6,27,30.47,7.0,NNW,15.0,-,N/A,,Clear,340,2013-01-17 16:15:00
10:35 AM,64.4,29.1,27,30.47,7.0,NNW,15.0,21.9,N/A,,Clear,340,2013-01-17 16:35:00
10:55 AM,65.7,29.7,26,30.47,7.0,NNW,16.1,21.9,N/A,,Clear,340,2013-01-17 16:55:00
11:15 AM,65.8,30.0,26,30.46,7.0,NNW,17.3,-,N/A,,Clear,330,2013-01-17 17:15:00
11:35 AM,67.1,30.4,25,30.46,7.0,NNW,16.1,20.7,N/A,,Clear,340,2013-01-17 17:35:00
11:55 AM,67.1,30.0,25,30.45,5.0,NNW,13.8,-,N/A,,Haze,340,2013-01-17 17:55:00
12:15 PM,67.8,30.0,24,30.43,7.0,NW,15.0,18.4,N/A,,Clear,310,2013-01-17 18:15:00
12:35 PM,67.5,29.8,25,30.43,7.0,NNW,9.2,-,N/A,,Clear,340,2013-01-17 18:35:00
12:55 PM,68.9,29.8,23,30.41,7.0,NNW,11.5,-,N/A,,Clear,340,2013-01-17 18:55:00
1:15 PM,69.6,29.5,22,30.40,7.0,NNW,10.4,-,N/A,,Clear,340,2013-01-17 19:15:00
1:35 PM,69.8,29.1,22,30.39,7.0,NNE,8.1,17.3,N/A,,Clear,20,2013-01-17 19:35:00
1:55 PM,70.0,29.1,22,30.38,7.0,NW,9.2,16.1,N/A,,Clear,310,2013-01-17 19:55:00
2:15 PM,70.2,29.5,22,30.38,10.0,NW,8.1,-,N/A,,Clear,320,2013-01-17 20:15:00
2:35 PM,69.8,28.8,22,30.38,7.0,North,6.9,-,N/A,,Clear,350,2013-01-17 20:35:00
3:15 PM,70.7,28.9,21,30.37,7.0,North,8.1,-,N/A,,Clear,350,2013-01-17 21:15:00
3:35 PM,71.1,28.9,21,30.38,7.0,NW,5.8,10.4,N/A,,Clear,310,2013-01-17 21:35:00
3:55 PM,71.2,28.4,20,30.38,7.0,NNE,10.4,-,N/A,,Clear,20,2013-01-17 21:55:00
4:55 PM,70.0,29.1,22,30.39,7.0,NNE,10.4,-,N/A,,Clear,20,2013-01-17 22:55:00
5:35 PM,67.5,29.8,25,30.41,7.0,NNE,9.2,-,N/A,,Clear,20,2013-01-17 23:35:00
7:55 PM,55.4,36.3,49,30.46,7.0,Calm,Calm,-,N/A,,Clear,0,2013-01-18 01:55:00
8:15 PM,56.3,36.9,48,30.46,7.0,SE,3.5,-,N/A,,Clear,130,2013-01-18 02:15:00
8:55 PM,53.8,37.9,55,30.46,7.0,Calm,Calm,-,N/A,,Clear,0,2013-01-18 02:55:00
9:15 PM,53.2,38.5,57,30.46,7.0,Calm,Calm,-,N/A,,Clear,0,2013-01-18 03:15:00
9:35 PM,52.0,39.0,61,30.46,7.0,Calm,Calm,-,N/A,,Clear,0,2013-01-18 03:35:00
9:55 PM,52.2,38.7,60,30.47,7.0,Calm,Calm,-,N/A,,Clear,0,2013-01-18 03:55:00
11:15 PM,48.2,39.9,73,30.46,7.0,Calm,Calm,-,N/A,,Clear,0,2013-01-18 05:15:00
11:35 PM,47.5,39.4,73,30.46,7.0,North,3.5,-,N/A,,Clear,350,2013-01-18 05:35:00
11:55 PM,48.0,39.4,72,30.45,7.0,NNE,3.5,-,N/A,,Clear,30,2013-01-18 05:55:00